This is the latest recevied weather packets stored in our database for station/object WS2Z. If no packets are shown the sender has not sent any weather packets the latest 10 day(s).
| Time | Temp. | Humidity | Pressure | Rain* | Wind** | Luminosity | Snow |
|---|---|---|---|---|---|---|---|
| 1777839301 | 24.44° C | 82% | 1015.3 hPa | 0 mm | - | 255 W/m² | - |
| 1777838999 | 24.44° C | 81% | 1015.4 hPa | 0 mm | - | 137 W/m² | - |
| 1777838695 | 24.44° C | 81% | 1015.4 hPa | 0 mm | - | 99 W/m² | - |
| 1777838392 | 25° C | 81% | 1015.4 hPa | 0 mm | - | 276 W/m² | - |
| 1777838089 | 24.44° C | 81% | 1015.4 hPa | 0 mm | - | 363 W/m² | - |
| 1777837785 | 23.89° C | 82% | 1015.4 hPa | 0 mm | - | 329 W/m² | - |
| 1777837483 | 23.89° C | 82% | 1015.5 hPa | 0 mm | - | 267 W/m² | - |
| 1777837178 | 23.89° C | 83% | 1015.6 hPa | 0 mm | - | 243 W/m² | - |
| 1777836873 | 23.33° C | 84% | 1015.7 hPa | 0 mm | - | 283 W/m² | - |
| 1777836569 | 23.33° C | 85% | 1015.8 hPa | 0 mm | - | 192 W/m² | - |
| 1777836266 | 23.33° C | 85% | 1015.9 hPa | 0 mm | - | 155 W/m² | - |
| 1777835962 | 23.33° C | 85% | 1015.9 hPa | 0 mm | - | 165 W/m² | - |
| 1777835660 | 23.33° C | 85% | 1015.9 hPa | 0 mm | - | 158 W/m² | - |
| 1777835356 | 22.78° C | 86% | 1016.1 hPa | 0 mm | - | 160 W/m² | - |
| 1777835053 | 22.78° C | 86% | 1016 hPa | 0 mm | - | 122 W/m² | - |
| 1777834749 | 23.33° C | 86% | 1016.1 hPa | 0 mm | - | 105 W/m² | - |
| 1777834446 | 23.33° C | 85% | 1016.2 hPa | 0 mm | - | 143 W/m² | - |
| 1777834145 | 23.33° C | 87% | 1016.1 hPa | 0 mm | - | 216 W/m² | - |
| 1777833842 | 22.78° C | 86% | 1016.2 hPa | 0 mm | - | 185 W/m² | - |
| 1777833538 | 22.78° C | 87% | 1016 hPa | 0 mm | - | 163 W/m² | - |
| 1777833235 | 22.78° C | 87% | 1016.2 hPa | 0 mm | - | 103 W/m² | - |
| 1777832933 | 22.78° C | 87% | 1016.3 hPa | 0 mm | - | 105 W/m² | - |
| 1777832631 | 23.33° C | 88% | 1016.4 hPa | 0 mm | - | 115 W/m² | - |
| 1777832328 | 23.33° C | 88% | 1016.4 hPa | 0 mm | - | 106 W/m² | - |
| 1777832025 | 22.78° C | 88% | 1016.3 hPa | 0 mm | - | 154 W/m² | - |
* Rain latest hour (hover to see other rain measurements)
** Current wind speed in m/s (hover to see current wind gust speed)